#�ϑ�����,���ϕ���,���ϕ���,�ő啗��,�ő啗����������,�ő�u�ԕ���,�ő�u�ԕ�����������
#(�N����),(m/s)   ,(16����),(m/s)   ,(16����)        ,(m/s)       ,(16����)            
2016/4/29 0:01,4,15,4,15,7.7,12
2016/4/29 0:02,3.9,15,4,15,7.2,12
2016/4/29 0:03,4.2,15,4.2,15,11.5,16
2016/4/29 0:04,3.9,16,4.1,15,5.8,1
2016/4/29 0:05,3.8,16,3.9,15,6.5,14
2016/4/29 0:06,4.4,16,4.4,16,14.7,16
2016/4/29 0:07,4.7,16,4.8,16,10.2,2
2016/4/29 0:08,5.2,16,5.2,16,15.2,16
2016/4/29 0:09,5.3,16,5.3,16,9.8,15
2016/4/29 0:10,5.4,16,5.4,16,16.1,16
2016/4/29 0:11,5.8,16,5.8,16,19,16
2016/4/29 0:12,6.2,16,6.2,16,15.8,15
2016/4/29 0:13,6.2,16,6.2,16,16.2,16
2016/4/29 0:14,6.4,16,6.4,16,9.3,16
2016/4/29 0:15,7.1,16,7.1,16,17.5,16
2016/4/29 0:16,7.1,16,7.2,16,13.6,16
2016/4/29 0:17,7.1,16,7.1,16,9.7,15
2016/4/29 0:18,6.8,16,7.1,16,7.5,14
2016/4/29 0:19,6.8,16,6.9,16,9.9,16
2016/4/29 0:20,6.4,16,6.8,16,9.2,15
2016/4/29 0:21,6.1,16,6.5,16,8.9,16
2016/4/29 0:22,6,16,6,16,10.5,15
2016/4/29 0:23,5.9,16,6,16,9,16
2016/4/29 0:24,5.8,16,5.9,16,6.4,1
2016/4/29 0:25,5.2,16,5.7,16,7,1
2016/4/29 0:26,4.7,16,5.2,16,5.8,2
2016/4/29 0:27,4.5,16,4.7,16,6.9,16
2016/4/29 0:28,4.2,16,4.5,16,5.7,16
2016/4/29 0:29,3.9,16,4.2,16,2.1,15
2016/4/29 0:30,3.8,16,3.9,16,3.7,15
2016/4/29 0:31,3.6,16,3.7,16,6.5,2
2016/4/29 0:32,3.4,16,3.7,16,7,2
2016/4/29 0:33,3.1,16,3.4,16,5.4,16
2016/4/29 0:34,3.1,16,3.1,16,8.2,1
2016/4/29 0:35,3.5,16,3.5,16,11.9,16
2016/4/29 0:36,3.7,16,3.8,16,7.6,16
2016/4/29 0:37,3.9,16,3.9,16,8.7,15
2016/4/29 0:38,3.8,16,3.9,16,4.1,3
2016/4/29 0:39,3.8,16,3.9,16,5,2
2016/4/29 0:40,3.7,16,3.8,16,1.1,14
2016/4/29 0:41,3.4,16,3.7,16,1.4,13
2016/4/29 0:42,3.1,15,3.4,16,1.4,13
2016/4/29 0:43,3,15,3.1,16,4.4,16
2016/4/29 0:44,2.8,15,3,16,5.7,1
2016/4/29 0:45,2.5,16,2.8,16,8.3,16
2016/4/29 0:46,2.6,15,2.6,16,13,15
2016/4/29 0:47,2.7,15,2.7,16,9,15
2016/4/29 0:48,2.8,16,2.8,16,6.3,2
2016/4/29 0:49,3,16,3,16,7.5,16
2016/4/29 0:50,3.4,16,3.4,16,9.1,13
2016/4/29 0:51,3.9,16,3.9,16,9.3,13
2016/4/29 0:52,4.3,16,4.3,16,7.4,14
2016/4/29 0:53,4.2,15,4.3,16,5.6,13
2016/4/29 0:54,4.2,15,4.3,16,4.4,14
2016/4/29 0:55,3.9,15,4.2,16,3.7,16
2016/4/29 0:56,3.7,15,3.9,16,8.3,1
2016/4/29 0:57,4,15,4,16,11.4,15
2016/4/29 0:58,4.2,15,4.2,16,10,15
2016/4/29 0:59,4.2,15,4.2,16,8.1,16
2016/4/29 1:00,4.3,15,4.3,16,9.9,15
2016/4/29 1:01,4.2,15,4.2,16,8.2,14
2016/4/29 1:02,3.9,15,4.1,16,3.2,16
2016/4/29 1:03,4,15,4,15,7.6,12
2016/4/29 1:04,3.8,15,4,14,2,12
2016/4/29 1:05,3.8,15,3.8,14,5.1,4
2016/4/29 1:06,3.7,16,3.9,14,6,5
2016/4/29 1:07,3.6,16,3.7,14,11.9,15
2016/4/29 1:08,3.5,16,3.6,14,7.5,15
2016/4/29 1:09,3.5,16,3.5,14,6.2,16
2016/4/29 1:10,3.5,16,3.5,15,9.8,16
2016/4/29 1:11,3.3,16,3.5,15,6,15
2016/4/29 1:12,3.2,16,3.3,15,3.1,7
2016/4/29 1:13,3,16,3.2,15,3.8,15
2016/4/29 1:14,3.3,1,3.3,15,7.8,15
2016/4/29 1:15,3.5,16,3.5,15,7.2,12
2016/4/29 1:16,3.5,16,3.5,16,4.8,14
2016/4/29 1:17,3.2,16,3.4,16,5.8,2
2016/4/29 1:18,3.1,16,3.1,16,7.8,1
2016/4/29 1:19,3.7,16,3.7,16,15.3,16
2016/4/29 1:20,3.8,15,3.8,16,12.1,12
2016/4/29 1:21,4.2,15,4.2,15,11.3,12
2016/4/29 1:22,4.4,15,4.4,15,9.1,9
2016/4/29 1:23,4.6,14,4.7,14,9.1,9
2016/4/29 1:24,4.5,14,4.6,14,3.7,4
2016/4/29 1:25,4.3,15,4.5,14,5.6,1
2016/4/29 1:26,4.6,15,4.6,14,8.7,16
2016/4/29 1:27,4.6,15,4.7,14,7.6,16
2016/4/29 1:28,4.3,15,4.6,14,1.8,15
2016/4/29 1:29,3.8,15,4.2,14,7.7,16
2016/4/29 1:30,3.4,16,3.7,14,10.1,16
2016/4/29 1:31,3.2,16,3.3,14,5.4,16
2016/4/29 1:32,3.2,16,3.3,14,6.9,1
2016/4/29 1:33,3.3,16,3.3,15,10.2,16
2016/4/29 1:34,3.6,16,3.6,15,8.5,16
2016/4/29 1:35,3.8,16,3.8,15,10.3,15
2016/4/29 1:36,3.8,16,3.9,15,9.7,15
2016/4/29 1:37,3.8,16,3.8,15,6.9,15
2016/4/29 1:38,4.2,16,4.2,15,9.9,16
2016/4/29 1:39,4,16,4.2,16,4.4,16
2016/4/29 1:40,3.9,16,4.1,16,3.8,16
2016/4/29 1:41,3.7,16,3.8,16,9.1,14
2016/4/29 1:42,3.9,16,3.9,16,9,14
2016/4/29 1:43,3.7,16,3.9,16,5.8,1
2016/4/29 1:44,3.6,16,3.7,16,6,15
2016/4/29 1:45,3.7,15,3.7,16,8.6,15
2016/4/29 1:46,3.8,15,3.8,16,8.5,16
2016/4/29 1:47,4,15,4,16,10.6,15
2016/4/29 1:48,4.1,15,4.1,16,7.5,16
2016/4/29 1:49,4.4,15,4.4,15,9.1,15
2016/4/29 1:50,4.5,15,4.5,15,6.2,16
2016/4/29 1:51,4.7,15,4.7,15,7.8,15
2016/4/29 1:52,4.5,15,4.7,15,5.6,15
2016/4/29 1:53,4.6,15,4.6,15,7.4,16
2016/4/29 1:54,4.7,15,4.7,15,10.7,16
2016/4/29 1:55,4.7,15,4.8,15,10.1,16
2016/4/29 1:56,4.6,15,4.7,15,7.7,16
2016/4/29 1:57,4.4,15,4.6,15,6.1,15
2016/4/29 1:58,4.1,15,4.4,15,3.3,16
2016/4/29 1:59,3.8,15,4,15,4.5,16
2016/4/29 2:00,4,15,4,15,9.3,16
2016/4/29 2:01,4.1,15,4.2,15,9.3,15
2016/4/29 2:02,4.3,15,4.3,15,8.2,14
2016/4/29 2:03,4.2,15,4.3,15,4.7,15
2016/4/29 2:04,4,15,4.2,15,4.8,12
2016/4/29 2:05,4,15,4,15,8.4,14
2016/4/29 2:06,3.9,15,4,15,4.2,14
2016/4/29 2:07,3.8,15,3.9,15,4.3,15
2016/4/29 2:08,4.1,15,4.1,15,8.1,16
2016/4/29 2:09,4.2,14,4.2,15,6.8,15
2016/4/29 2:10,4.1,14,4.3,15,7.2,13
2016/4/29 2:11,4.1,14,4.1,15,8.7,1
2016/4/29 2:12,4.2,15,4.2,15,10,1
2016/4/29 2:13,4.3,14,4.3,14,6.3,15
2016/4/29 2:14,4.4,15,4.4,15,6.8,15
2016/4/29 2:15,4.3,15,4.4,15,10,15
2016/4/29 2:16,4.2,15,4.3,15,4.8,12
2016/4/29 2:17,4.1,15,4.2,15,3.3,1
2016/4/29 2:18,3.7,15,4.1,15,3.5,14
2016/4/29 2:19,3.8,15,3.9,15,8.5,15
2016/4/29 2:20,3.7,15,3.8,15,5.4,14
2016/4/29 2:21,3.8,15,3.8,15,9,14
2016/4/29 2:22,3.7,15,3.8,15,8.9,15
2016/4/29 2:23,3.8,15,3.8,15,9.8,14
2016/4/29 2:24,3.8,15,3.8,15,7,14
2016/4/29 2:25,3.7,15,3.8,15,8.6,16
2016/4/29 2:26,3.8,15,3.8,15,5.8,15
2016/4/29 2:27,4,15,4,15,5.1,15
2016/4/29 2:28,4.1,15,4.1,15,4.8,16
2016/4/29 2:29,4,15,4.2,15,8.6,1
2016/4/29 2:30,4.1,15,4.1,15,5.4,15
2016/4/29 2:31,4.1,15,4.1,15,8.7,14
2016/4/29 2:32,4.1,15,4.2,15,9.3,15
2016/4/29 2:33,4.2,16,4.2,15,8.6,16
2016/4/29 2:34,4.5,16,4.5,16,8.6,16
2016/4/29 2:35,4.4,16,4.5,16,9.5,16
2016/4/29 2:36,4.7,16,4.7,16,9.1,1
2016/4/29 2:37,5.1,16,5.1,16,13,16
2016/4/29 2:38,5.4,16,5.4,16,8.4,16
2016/4/29 2:39,5.5,16,5.5,16,8.2,15
2016/4/29 2:40,5.3,16,5.5,16,5.1,14
2016/4/29 2:41,5.3,16,5.3,16,8.5,16
2016/4/29 2:42,5.2,16,5.3,16,7,16
2016/4/29 2:43,4.9,15,5.2,16,3.8,15
2016/4/29 2:44,4.4,15,4.8,16,3.8,15
2016/4/29 2:45,4.2,15,4.4,16,6,16
2016/4/29 2:46,4,15,4.1,16,5.8,2
2016/4/29 2:47,3.7,15,4,16,8.2,16
2016/4/29 2:48,3.6,15,3.7,16,8.4,2
2016/4/29 2:49,3.5,15,3.6,16,7.1,1
2016/4/29 2:50,3.7,15,3.7,16,6.1,16
2016/4/29 2:51,3.6,15,3.6,16,9.1,16
2016/4/29 2:52,3.7,15,3.7,16,8.4,15
2016/4/29 2:53,3.8,15,3.8,15,5.6,15
2016/4/29 2:54,3.9,15,3.9,15,4.7,15
2016/4/29 2:55,3.9,16,3.9,15,2.4,15
2016/4/29 2:56,3.7,15,3.9,15,3.1,16
2016/4/29 2:57,3.4,15,3.7,15,2.4,15
2016/4/29 2:58,2.9,15,3.3,15,0.9,5
2016/4/29 2:59,2.6,15,2.9,15,1.5,7
2016/4/29 3:00,2.3,16,2.5,15,0.9,6
2016/4/29 3:01,1.8,15,2.3,15,0.9,13
2016/4/29 3:02,1.3,15,1.7,15,3.7,16
2016/4/29 3:03,1.3,16,1.3,15,3.8,16
2016/4/29 3:04,1.2,16,1.2,15,2.9,16
2016/4/29 3:05,1.1,16,1.1,16,2.6,8
2016/4/29 3:06,1.1,16,1.1,16,3.1,9
2016/4/29 3:07,1.1,16,1.1,15,4.1,15
2016/4/29 3:08,1.4,16,1.4,15,5.1,15
2016/4/29 3:09,1.6,16,1.6,15,5.1,15
2016/4/29 3:10,1.8,15,1.8,16,7.8,15
2016/4/29 3:11,2.3,16,2.3,16,7.5,15
2016/4/29 3:12,2.5,15,2.5,16,5.1,15
2016/4/29 3:13,2.5,15,2.5,16,3.9,13
2016/4/29 3:14,2.4,14,2.4,16,2.2,10
2016/4/29 3:15,2.4,14,2.4,16,2.9,10
2016/4/29 3:16,2.4,13,2.4,16,2.9,9
2016/4/29 3:17,2.4,13,2.4,16,2.7,9
2016/4/29 3:18,2.2,12,2.4,16,1.9,9
2016/4/29 3:19,1.9,12,2.2,16,1.1,16
2016/4/29 3:20,1.8,12,1.9,16,1.9,1
2016/4/29 3:21,1.5,12,1.7,16,4.3,1
2016/4/29 3:22,1.4,11,1.5,15,3.3,1
2016/4/29 3:23,1.7,15,1.7,15,9.3,16
2016/4/29 3:24,1.8,15,1.8,14,5.2,14
2016/4/29 3:25,2.1,15,2.1,14,6.1,15
2016/4/29 3:26,2.4,16,2.4,13,6.3,15
2016/4/29 3:27,2.5,16,2.5,16,3.7,15
2016/4/29 3:28,2.5,16,2.5,16,3.8,16
2016/4/29 3:29,2.6,16,2.6,16,2.7,16
2016/4/29 3:30,2.6,15,2.6,16,2.2,16
2016/4/29 3:31,2.4,15,2.6,16,2.5,1
2016/4/29 3:32,2.4,15,2.4,16,3.1,16
2016/4/29 3:33,2.1,15,2.4,16,3.8,16
2016/4/29 3:34,2,15,2.1,16,4.3,1
2016/4/29 3:35,1.9,16,2,16,5.2,1
2016/4/29 3:36,1.9,16,2,16,6,1
2016/4/29 3:37,2,16,2,16,4.2,16
2016/4/29 3:38,2,16,2,16,3,15
2016/4/29 3:39,2.2,16,2.2,16,4.9,1
2016/4/29 3:40,2.4,16,2.4,15,5,16
2016/4/29 3:41,2.9,16,2.9,16,7.8,14
2016/4/29 3:42,3.1,16,3.1,16,5.4,14
2016/4/29 3:43,3.1,16,3.1,16,3.5,16
2016/4/29 3:44,3,15,3.1,16,3.1,15
2016/4/29 3:45,2.8,15,3,16,1.5,9
2016/4/29 3:46,2.5,15,2.8,16,2.2,14
2016/4/29 3:47,2.4,15,2.5,16,3.8,16
2016/4/29 3:48,2.6,15,2.6,16,5.6,14
2016/4/29 3:49,2.6,15,2.6,16,4.5,16
2016/4/29 3:50,2.5,15,2.6,16,4.4,1
2016/4/29 3:51,2.3,15,2.5,16,5.2,15
2016/4/29 3:52,2.3,15,2.3,16,5.7,15
2016/4/29 3:53,2.6,15,2.6,16,6,16
2016/4/29 3:54,2.6,15,2.6,15,4.1,16
2016/4/29 3:55,2.9,15,2.9,15,4.9,14
2016/4/29 3:56,3.1,15,3.1,15,4.9,13
2016/4/29 3:57,3.2,15,3.2,15,4.1,13
2016/4/29 3:58,2.8,15,3.1,15,1.1,12
2016/4/29 3:59,2.7,15,2.8,15,4.8,15
2016/4/29 4:00,2.7,15,2.7,15,5.2,1
2016/4/29 4:01,2.5,15,2.7,15,2.2,14
2016/4/29 4:02,2.4,15,2.5,15,4.2,16
2016/4/29 4:03,2.3,15,2.3,15,5.8,1
2016/4/29 4:04,2.4,15,2.4,15,7.1,16
2016/4/29 4:05,2.8,15,2.8,15,8.9,14
2016/4/29 4:06,2.8,16,2.8,15,6.2,14
2016/4/29 4:07,2.9,16,2.9,15,4.4,15
2016/4/29 4:08,3.1,15,3.1,16,4.2,15
2016/4/29 4:09,2.9,15,3.1,16,1.3,11
2016/4/29 4:10,3,15,3,16,4.1,1
2016/4/29 4:11,3,16,3,16,2.4,2
2016/4/29 4:12,2.9,16,3,16,2.9,16
2016/4/29 4:13,2.7,16,2.9,16,3.3,2
2016/4/29 4:14,2.6,16,2.7,16,6.1,1
2016/4/29 4:15,2.4,16,2.6,16,5.8,2
2016/4/29 4:16,2.6,16,2.6,16,9.3,2
2016/4/29 4:17,2.5,16,2.5,16,4.3,2
2016/4/29 4:18,2.5,16,2.5,15,5.1,15
2016/4/29 4:19,2.7,1,2.7,15,5.1,15
2016/4/29 4:20,2.7,16,2.8,16,5.5,16
2016/4/29 4:21,3,16,3,16,6.8,15
2016/4/29 4:22,3.2,16,3.2,16,6.8,16
2016/4/29 4:23,3.4,16,3.4,16,5.4,13
2016/4/29 4:24,3.3,16,3.5,16,4.3,14
2016/4/29 4:25,3.1,16,3.2,16,3.3,16
2016/4/29 4:26,2.8,16,3.1,16,4.3,15
2016/4/29 4:27,2.9,16,2.9,16,4.5,16
2016/4/29 4:28,2.8,16,2.9,16,3.7,2
2016/4/29 4:29,2.9,16,2.9,16,5.5,1
2016/4/29 4:30,2.8,16,2.9,16,4.3,1
2016/4/29 4:31,2.6,16,2.8,16,5.8,16
2016/4/29 4:32,2.9,16,2.9,16,12.5,16
2016/4/29 4:33,2.9,16,3,16,8.9,16
2016/4/29 4:34,2.8,16,2.8,16,2.9,13
2016/4/29 4:35,2.7,16,2.8,16,2.4,1
2016/4/29 4:36,2.6,16,2.7,16,2.1,16
2016/4/29 4:37,2.9,16,2.9,16,7.6,16
2016/4/29 4:38,3.1,16,3.1,16,9.2,16
2016/4/29 4:39,3.1,16,3.1,16,4.4,14
2016/4/29 4:40,3,16,3,16,2.2,16
2016/4/29 4:41,2.9,16,3,16,3,16
2016/4/29 4:42,2.4,16,2.8,16,4.5,15
2016/4/29 4:43,2.2,16,2.4,16,2.1,15
2016/4/29 4:44,2.2,16,2.2,16,2.1,14
2016/4/29 4:45,2.1,16,2.2,16,1.6,14
2016/4/29 4:46,2.1,16,2.1,16,3,16
2016/4/29 4:47,1.7,16,2.1,16,3.3,1
2016/4/29 4:48,1.7,16,1.7,16,7.5,16
2016/4/29 4:49,1.8,16,1.8,16,7.1,15
2016/4/29 4:50,1.9,16,1.9,16,4.1,16
2016/4/29 4:51,2,16,2,16,3.9,16
2016/4/29 4:52,1.9,16,2,16,2.7,14
2016/4/29 4:53,1.9,16,1.9,16,2.9,12
2016/4/29 4:54,2,15,2,16,2.9,12
2016/4/29 4:55,2,15,2,16,1,14
2016/4/29 4:56,1.9,15,2,16,0.3,7
2016/4/29 4:57,2.1,15,2.1,15,8.2,16
2016/4/29 4:58,2,14,2.1,15,7.1,1
2016/4/29 4:59,1.9,14,2,15,4.1,14
2016/4/29 5:00,1.9,14,1.9,15,3.6,16
2016/4/29 5:01,1.9,14,1.9,15,3.6,16
2016/4/29 5:02,1.8,14,1.9,15,1.8,16
2016/4/29 5:03,1.8,15,1.8,15,1.5,15
2016/4/29 5:04,1.8,15,1.8,15,4.1,16
2016/4/29 5:05,2,15,2,15,4.7,1
2016/4/29 5:06,2.2,15,2.2,15,3.1,15
2016/4/29 5:07,2.1,15,2.2,15,3.9,1
2016/4/29 5:08,1.9,16,2.1,15,3.9,1
2016/4/29 5:09,2.1,16,2.1,15,7,1
2016/4/29 5:10,2.5,16,2.5,16,7.7,1
2016/4/29 5:11,2.7,16,2.7,16,6.1,15
2016/4/29 5:12,2.8,16,2.8,16,4.9,16
2016/4/29 5:13,3,16,3,16,4.7,16
2016/4/29 5:14,3.1,16,3.2,16,7.1,15
2016/4/29 5:15,3.3,16,3.3,16,6.8,2
2016/4/29 5:16,3.4,16,3.4,16,5,1
2016/4/29 5:17,3.6,16,3.6,16,7.8,15
2016/4/29 5:18,4,16,4,16,8.5,15
2016/4/29 5:19,3.7,16,4,16,5.8,15
2016/4/29 5:20,3.3,16,3.6,16,4.7,15
2016/4/29 5:21,3.3,16,3.3,16,4.5,15
2016/4/29 5:22,3.2,16,3.3,16,3.5,16
2016/4/29 5:23,3.1,16,3.2,16,2.6,1
2016/4/29 5:24,2.8,16,3,16,2,3
2016/4/29 5:25,2.6,16,2.8,16,4.7,1
2016/4/29 5:26,2.9,16,2.9,16,7.5,16
2016/4/29 5:27,2.7,16,2.9,16,6.1,16
2016/4/29 5:28,2.3,16,2.6,16,2.6,16
2016/4/29 5:29,2.3,16,2.3,16,3.5,1
2016/4/29 5:30,2.4,16,2.5,16,4.4,1
2016/4/29 5:31,2.4,16,2.4,16,4.4,16
2016/4/29 5:32,2.4,16,2.4,16,3.1,15
2016/4/29 5:33,2.6,16,2.6,16,7.2,16
2016/4/29 5:34,2.9,16,2.9,16,7.2,16
2016/4/29 5:35,2.9,16,2.9,16,6.5,13
2016/4/29 5:36,2.7,16,2.9,16,4.8,12
2016/4/29 5:37,2.7,16,2.7,16,4.4,15
2016/4/29 5:38,3,16,3,16,7.2,1
2016/4/29 5:39,3.1,16,3.2,16,5.4,15
2016/4/29 5:40,2.9,16,3.1,16,1.1,15
2016/4/29 5:41,2.7,15,2.9,16,2.5,14
2016/4/29 5:42,2.9,15,2.9,16,4.2,14
2016/4/29 5:43,2.7,15,2.9,16,3.8,13
2016/4/29 5:44,2.5,15,2.7,16,3.3,12
2016/4/29 5:45,2.5,15,2.6,16,5.1,14
2016/4/29 5:46,2.3,15,2.5,16,2.9,1
2016/4/29 5:47,2.2,15,2.3,16,3.2,2
2016/4/29 5:48,1.9,15,2.2,16,3.8,15
2016/4/29 5:49,1.9,15,1.9,16,4.5,15
2016/4/29 5:50,2.2,15,2.2,16,6,16
2016/4/29 5:51,2.5,15,2.5,15,7,15
2016/4/29 5:52,2.5,16,2.6,15,4.9,1
2016/4/29 5:53,2.5,16,2.5,15,2.7,16
2016/4/29 5:54,2.6,16,2.6,15,4.3,15
2016/4/29 5:55,2.5,16,2.6,15,4.9,1
2016/4/29 5:56,2.6,16,2.6,15,5.1,2
2016/4/29 5:57,2.7,16,2.7,16,4.3,16
2016/4/29 5:58,2.8,16,2.8,16,4.3,16
2016/4/29 5:59,2.7,16,2.8,16,4.9,16
2016/4/29 6:00,2.8,16,2.8,16,5.2,16
2016/4/29 6:01,2.7,16,2.7,16,8.6,16
2016/4/29 6:02,2.9,16,2.9,16,7.5,15
2016/4/29 6:03,3.3,16,3.3,16,7.6,16
2016/4/29 6:04,3.5,16,3.5,16,8.5,16
2016/4/29 6:05,3.7,16,3.7,16,8.6,1
2016/4/29 6:06,4,16,4,16,11,1
2016/4/29 6:07,4,16,4,16,7,1
2016/4/29 6:08,4.2,16,4.2,16,5.4,15
2016/4/29 6:09,4.2,16,4.2,16,4.1,13
2016/4/29 6:10,4.2,15,4.2,16,5.5,16
2016/4/29 6:11,4.2,15,4.3,15,6.9,15
2016/4/29 6:12,4.2,15,4.2,15,7.7,15
2016/4/29 6:13,4,15,4.2,15,7.5,15
2016/4/29 6:14,3.9,15,4.1,15,7.6,14
2016/4/29 6:15,4,15,4,15,9.9,15
2016/4/29 6:16,4,15,4,15,8.9,15
2016/4/29 6:17,4.1,15,4.1,15,8.5,15
2016/4/29 6:18,4.2,15,4.2,15,7.6,14
2016/4/29 6:19,4.2,15,4.3,15,5.4,2
2016/4/29 6:20,4.1,15,4.2,15,3.6,16
2016/4/29 6:21,4.1,16,4.2,15,6.3,16
2016/4/29 6:22,4,16,4.1,15,5,16
2016/4/29 6:23,3.9,16,4,15,3.9,16
2016/4/29 6:24,3.9,16,3.9,15,5.6,13
2016/4/29 6:25,3.7,16,3.9,15,6.5,16
2016/4/29 6:26,3.3,16,3.6,15,2.1,13
2016/4/29 6:27,2.9,16,3.3,15,2.4,15
2016/4/29 6:28,2.7,16,2.9,15,5,1
2016/4/29 6:29,2.7,16,2.7,15,5.6,16
2016/4/29 6:30,2.9,16,2.9,16,7,2
2016/4/29 6:31,3.1,16,3.1,16,8.1,16
2016/4/29 6:32,3.2,16,3.3,16,6.9,16
2016/4/29 6:33,3.4,16,3.4,16,5.8,16
2016/4/29 6:34,3.4,16,3.4,16,5.7,15
2016/4/29 6:35,3.3,16,3.4,16,5.2,16
2016/4/29 6:36,3.5,16,3.5,16,4.9,15
2016/4/29 6:37,3.6,16,3.6,16,3.8,15
2016/4/29 6:38,3.8,16,3.8,16,7.5,16
2016/4/29 6:39,3.8,16,3.8,16,5,16
2016/4/29 6:40,3.6,16,3.8,16,4.7,1
2016/4/29 6:41,3.3,16,3.6,16,5.5,1
2016/4/29 6:42,3.3,16,3.3,16,6.8,1
2016/4/29 6:43,3.2,16,3.3,16,8.4,16
2016/4/29 6:44,3.4,16,3.4,16,8.5,16
2016/4/29 6:45,3.5,16,3.5,16,6,16
2016/4/29 6:46,3.4,16,3.5,16,4.8,16
2016/4/29 6:47,3.4,1,3.4,16,4.7,1
2016/4/29 6:48,3.4,1,3.4,16,7.8,15
2016/4/29 6:49,3.6,1,3.6,16,7.9,16
2016/4/29 6:50,3.7,16,3.7,16,6.3,15
2016/4/29 6:51,3.6,16,3.7,16,3.1,14
2016/4/29 6:52,3.4,16,3.6,16,4.8,16
2016/4/29 6:53,3.4,16,3.5,16,6,15
2016/4/29 6:54,3,16,3.4,16,3.7,14
2016/4/29 6:55,2.7,16,2.9,16,3,2
2016/4/29 6:56,2.6,16,2.7,16,3,3
2016/4/29 6:57,2.5,16,2.6,16,1.4,8
2016/4/29 6:58,2.2,16,2.5,16,3.6,14
2016/4/29 6:59,2.2,16,2.2,16,8.5,16
2016/4/29 7:00,2.1,15,2.2,16,8.1,15
2016/4/29 7:01,2.5,15,2.5,16,5.7,13
2016/4/29 7:02,2.6,14,2.6,16,5.7,13
2016/4/29 7:03,2.6,14,2.6,16,4.9,13
2016/4/29 7:04,2.7,14,2.7,16,4.9,16
2016/4/29 7:05,2.9,15,2.9,15,4.9,16
2016/4/29 7:06,3,14,3,14,4.1,16
2016/4/29 7:07,3.1,14,3.1,14,2.4,15
2016/4/29 7:08,3,15,3.1,14,6,16
2016/4/29 7:09,2.8,15,3,14,4.4,1
2016/4/29 7:10,2.8,15,2.8,14,7.1,16
2016/4/29 7:11,2.8,16,2.8,14,6.3,16
2016/4/29 7:12,2.7,16,2.7,14,3.8,15
2016/4/29 7:13,2.5,16,2.7,14,3,15
2016/4/29 7:14,2.5,16,2.6,14,4.9,16
2016/4/29 7:15,2.6,16,2.6,14,6.5,16
2016/4/29 7:16,2.8,16,2.8,14,7.9,16
2016/4/29 7:17,3.1,16,3.1,14,8.7,16
2016/4/29 7:18,3.1,16,3.2,16,4.9,16
2016/4/29 7:19,3.2,16,3.2,16,6.3,2
2016/4/29 7:20,3.2,16,3.2,16,9,16
2016/4/29 7:21,3.3,16,3.3,16,7.1,16
2016/4/29 7:22,3.3,16,3.3,16,6.2,1
2016/4/29 7:23,3.5,1,3.5,1,7.9,1
2016/4/29 7:24,3.9,1,3.9,1,8.5,1
2016/4/29 7:25,3.9,16,3.9,1,6.2,1
2016/4/29 7:26,3.9,16,3.9,1,9.1,15
2016/4/29 7:27,4.2,16,4.2,16,10.3,16
2016/4/29 7:28,4.3,16,4.3,16,7.6,15
2016/4/29 7:29,4.3,16,4.3,16,5.4,12
2016/4/29 7:30,4.2,15,4.3,16,5.2,12
2016/4/29 7:31,3.8,15,4.1,16,3.3,15
2016/4/29 7:32,3.6,16,3.8,16,3,3
2016/4/29 7:33,3.5,16,3.6,16,3.1,2
2016/4/29 7:34,3,16,3.4,16,3.9,3
2016/4/29 7:35,2.9,16,3,16,3.8,15
2016/4/29 7:36,2.7,16,2.9,16,4.4,6
2016/4/29 7:37,2.1,1,2.7,16,2.5,5
2016/4/29 7:38,2.2,1,2.2,16,6.8,16
2016/4/29 7:39,2.3,1,2.3,15,8.3,1
2016/4/29 7:40,2.6,1,2.6,15,9,15
2016/4/29 7:41,3,1,3,15,10.5,16
2016/4/29 7:42,3.3,1,3.3,16,7.6,16
2016/4/29 7:43,3.7,16,3.7,16,11.5,16
2016/4/29 7:44,4.1,16,4.1,16,8.2,15
2016/4/29 7:45,4.2,16,4.2,16,6.2,15
2016/4/29 7:46,4,16,4.1,16,3,13
2016/4/29 7:47,4.1,15,4.1,16,6.5,14
2016/4/29 7:48,4.3,15,4.4,15,9.3,15
2016/4/29 7:49,4.1,15,4.3,15,4.2,14
2016/4/29 7:50,3.7,15,4.1,15,4.1,14
2016/4/29 7:51,3.4,15,3.7,15,5.7,16
2016/4/29 7:52,3.3,14,3.4,15,5.5,15
2016/4/29 7:53,3,14,3.3,15,6.3,3
2016/4/29 7:54,2.8,15,3,15,5.7,16
2016/4/29 7:55,2.9,15,2.9,15,7,15
2016/4/29 7:56,3.1,15,3.1,15,6.4,16
2016/4/29 7:57,3,16,3.1,15,7.7,16
2016/4/29 7:58,2.8,16,3,15,6,16
2016/4/29 7:59,3.2,16,3.2,15,9,1
2016/4/29 8:00,3.6,16,3.6,15,9.1,16
2016/4/29 8:01,4,16,4,16,10.2,15
2016/4/29 8:02,3.9,1,4,16,5,16
2016/4/29 8:03,3.9,16,4,16,6.7,14
2016/4/29 8:04,3.7,16,3.9,16,3.5,15
2016/4/29 8:05,3.7,16,3.7,16,7.4,2
2016/4/29 8:06,4.1,16,4.1,16,9.7,1
2016/4/29 8:07,4.4,16,4.4,16,9.1,14
2016/4/29 8:08,4.5,16,4.5,16,8.2,16
2016/4/29 8:09,4.4,16,4.5,16,6.4,16
2016/4/29 8:10,4.1,16,4.4,16,6.8,14
2016/4/29 8:11,3.7,16,4.1,16,6,14
2016/4/29 8:12,3.9,15,3.9,16,4.1,12
2016/4/29 8:13,3.9,15,3.9,16,3.6,15
2016/4/29 8:14,3.9,15,3.9,16,3.5,9
2016/4/29 8:15,3.7,14,3.8,16,3.7,15
2016/4/29 8:16,3.3,14,3.7,16,5.1,16
2016/4/29 8:17,3.2,14,3.3,16,6.9,16
2016/4/29 8:18,3,14,3.2,16,6.1,16
2016/4/29 8:19,2.9,14,3,16,5.8,16
2016/4/29 8:20,2.9,14,2.9,16,6.7,16
2016/4/29 8:21,3.2,14,3.2,15,7.2,16
2016/4/29 8:22,3.2,15,3.2,15,5.5,15
2016/4/29 8:23,3,15,3.2,15,5.4,15
2016/4/29 8:24,3.1,15,3.1,15,6.4,16
2016/4/29 8:25,3.4,16,3.4,14,8.7,1
2016/4/29 8:26,3.3,16,3.4,16,4.9,16
2016/4/29 8:27,3.2,16,3.3,16,6.1,15
2016/4/29 8:28,3.6,16,3.6,16,10.5,16
2016/4/29 8:29,3.5,16,3.6,16,6.3,16
2016/4/29 8:30,3.6,16,3.6,16,8.4,16
2016/4/29 8:31,3.6,16,3.6,16,10.5,1
2016/4/29 8:32,3.7,16,3.7,16,6.9,16
2016/4/29 8:33,3.9,16,3.9,16,4.4,14
2016/4/29 8:34,4.1,16,4.1,16,7.1,15
2016/4/29 8:35,4,16,4.2,16,6.9,16
2016/4/29 8:36,4.1,16,4.1,16,7.6,16
2016/4/29 8:37,4.7,16,4.7,16,13.9,16
2016/4/29 8:38,4.6,16,4.8,16,8.6,15
2016/4/29 8:39,4.9,16,4.9,16,8.7,16
2016/4/29 8:40,5.1,16,5.1,16,10.9,16
2016/4/29 8:41,5,16,5.2,16,7.7,16
2016/4/29 8:42,5.1,16,5.1,16,8.7,15
2016/4/29 8:43,5.4,16,5.4,16,9,15
2016/4/29 8:44,5.5,16,5.5,16,10.1,15
2016/4/29 8:45,5.5,16,5.6,16,8.2,16
2016/4/29 8:46,5.6,16,5.7,16,6.9,16
2016/4/29 8:47,5.2,16,5.5,16,7.5,16
2016/4/29 8:48,5.3,16,5.3,16,9.7,16
2016/4/29 8:49,5.3,16,5.3,16,11,16
2016/4/29 8:50,5.2,16,5.3,16,10.9,15
2016/4/29 8:51,5.3,16,5.3,16,9.8,15
2016/4/29 8:52,5.3,16,5.3,16,9,1
2016/4/29 8:53,5,16,5.3,16,5.7,15
2016/4/29 8:54,4.7,16,4.9,16,6.8,14
2016/4/29 8:55,4.7,16,4.7,16,8.1,15
2016/4/29 8:56,4.8,16,4.8,16,8.6,16
2016/4/29 8:57,4.7,16,4.9,16,7.9,1
2016/4/29 8:58,4.3,16,4.6,16,4.1,16
2016/4/29 8:59,3.9,16,4.3,16,4.4,2
2016/4/29 9:00,3.7,16,3.9,16,10.3,16
2016/4/29 9:01,3.6,16,3.7,16,7.6,15
2016/4/29 9:02,3.4,16,3.6,16,7.4,15
2016/4/29 9:03,3.5,16,3.5,16,7.5,15
2016/4/29 9:04,3.4,16,3.5,16,4.4,15
2016/4/29 9:05,3.3,16,3.4,16,5.5,15
2016/4/29 9:06,3.3,16,3.3,16,7.2,2
2016/4/29 9:07,3.6,16,3.6,16,9.5,15
2016/4/29 9:08,3.8,16,3.9,16,7.4,15
2016/4/29 9:09,4,16,4,16,7.7,1
2016/4/29 9:10,4,16,4.1,16,6.7,15
2016/4/29 9:11,3.9,16,4,16,6.1,16
2016/4/29 9:12,4,16,4,16,7.5,16
2016/4/29 9:13,4.2,16,4.2,16,9.1,1
2016/4/29 9:14,4.4,16,4.4,16,8.7,15
2016/4/29 9:15,4.8,16,4.8,16,8.6,14
2016/4/29 9:16,4.7,15,4.8,16,6.1,15
2016/4/29 9:17,4.3,15,4.7,16,5.5,15
2016/4/29 9:18,4.2,16,4.3,16,6.7,16
2016/4/29 9:19,4,16,4.2,16,3.8,6
2016/4/29 9:20,4.1,16,4.1,16,8.1,16
2016/4/29 9:21,4.1,16,4.1,16,6.2,16
2016/4/29 9:22,4.1,16,4.2,16,9.4,16
2016/4/29 9:23,4,16,4.1,16,9.7,15
2016/4/29 9:24,4.1,16,4.1,16,8.9,15
2016/4/29 9:25,3.9,16,4.1,16,8.7,1
2016/4/29 9:26,3.9,16,3.9,15,7,15
2016/4/29 9:27,3.8,16,3.8,15,5,16
2016/4/29 9:28,4.1,16,4.1,16,8.7,16
2016/4/29 9:29,4.2,16,4.2,16,6.4,15
2016/4/29 9:30,4.1,16,4.2,16,6.3,1
2016/4/29 9:31,4.1,16,4.1,16,7.1,1
2016/4/29 9:32,4,16,4.1,16,5.7,16
2016/4/29 9:33,3.8,16,4,16,3.7,12
2016/4/29 9:34,3.7,15,3.8,16,6.4,14
2016/4/29 9:35,3.7,15,3.7,16,8.7,16
2016/4/29 9:36,4,15,4,16,9.8,15
2016/4/29 9:37,4.1,15,4.1,16,6,15
2016/4/29 9:38,4,15,4.1,16,6.9,1
2016/4/29 9:39,4,15,4,16,4.9,1
2016/4/29 9:40,3.9,15,4,16,4.9,15
2016/4/29 9:41,3.9,15,4,16,7.7,15
2016/4/29 9:42,3.9,16,3.9,15,3.9,15
2016/4/29 9:43,4,16,4,15,7,2
2016/4/29 9:44,4.2,16,4.2,16,8.2,16
2016/4/29 9:45,3.9,16,4.2,16,5.7,16
2016/4/29 9:46,3.5,16,3.9,16,3.2,1
2016/4/29 9:47,3.3,16,3.4,16,4.2,14
2016/4/29 9:48,3.3,16,3.3,16,5.4,15
2016/4/29 9:49,3.4,16,3.4,16,7.2,16
2016/4/29 9:50,3.5,16,3.5,16,6.8,16
2016/4/29 9:51,3.5,16,3.5,16,6.7,16
2016/4/29 9:52,3.7,16,3.7,16,7.4,16
2016/4/29 9:53,3.8,16,3.8,16,7.8,16
2016/4/29 9:54,3.5,16,3.7,16,5.7,16
2016/4/29 9:55,3.4,16,3.5,16,5.2,16
2016/4/29 9:56,3.7,16,3.7,16,9.3,16
2016/4/29 9:57,4,16,4,16,8.3,16
2016/4/29 9:58,4.1,16,4.1,16,6.2,1
2016/4/29 9:59,4,16,4.1,16,6.3,1
2016/4/29 10:00,3.9,16,4,16,4.2,16
2016/4/29 10:01,3.9,16,3.9,16,7.1,15
2016/4/29 10:02,3.7,16,3.9,16,6,16
2016/4/29 10:03,3.4,16,3.7,16,3.8,15
2016/4/29 10:04,3.4,16,3.5,16,4.8,15
2016/4/29 10:05,3.5,16,3.5,16,4.3,1
2016/4/29 10:06,3.2,16,3.5,16,3.7,16
2016/4/29 10:07,2.9,16,3.2,16,2.7,13
2016/4/29 10:08,2.6,16,2.9,16,3,16
2016/4/29 10:09,2.6,15,2.6,16,10,14
2016/4/29 10:10,2.9,15,2.9,16,9.8,14
2016/4/29 10:11,3,15,3.1,16,7.1,16
2016/4/29 10:12,2.9,16,2.9,16,6,1
2016/4/29 10:13,2.9,16,2.9,16,5.4,1
2016/4/29 10:14,2.9,16,2.9,16,3.9,2
2016/4/29 10:15,3.1,16,3.1,16,6.9,16
2016/4/29 10:16,3.5,16,3.5,16,7.7,16
2016/4/29 10:17,3.8,16,3.8,16,6.4,15
2016/4/29 10:18,4,16,4.1,16,6.7,15
2016/4/29 10:19,3.9,16,4,16,5.7,15
2016/4/29 10:20,3.6,16,3.9,16,5.7,16
2016/4/29 10:21,3.5,16,3.6,16,7.2,16
2016/4/29 10:22,3.7,16,3.7,16,7.5,16
2016/4/29 10:23,3.9,16,3.9,16,5,2
2016/4/29 10:24,4.1,16,4.1,16,7.8,15
2016/4/29 10:25,4.1,16,4.1,16,6.1,14
2016/4/29 10:26,3.9,16,4.1,16,4.8,14
2016/4/29 10:27,3.6,16,3.9,16,4.8,15
2016/4/29 10:28,3.6,16,3.6,16,5,1
2016/4/29 10:29,3.6,16,3.7,16,7.5,16
2016/4/29 10:30,3.7,16,3.7,16,8.4,16
2016/4/29 10:31,3.6,16,3.7,16,6.3,16
2016/4/29 10:32,3.5,16,3.6,16,4.9,15
2016/4/29 10:33,3.4,16,3.5,16,5.7,16
2016/4/29 10:34,3.4,16,3.5,16,9.4,15
2016/4/29 10:35,3.2,16,3.4,16,4.5,16
2016/4/29 10:36,3.3,16,3.3,16,7.2,16
2016/4/29 10:37,3.4,16,3.4,16,7.4,16
2016/4/29 10:38,3.6,16,3.6,16,9,15
2016/4/29 10:39,3.5,16,3.6,16,5,12
2016/4/29 10:40,3.5,16,3.5,16,5.7,15
2016/4/29 10:41,3.6,16,3.6,16,6.9,15
2016/4/29 10:42,3.6,16,3.6,16,5.7,14
2016/4/29 10:43,3.6,15,3.6,16,4.2,13
2016/4/29 10:44,3.4,15,3.5,16,4.7,1
2016/4/29 10:45,3.4,15,3.4,16,5.2,15
2016/4/29 10:46,3.2,15,3.4,16,4.4,15
2016/4/29 10:47,3,15,3.2,16,3.1,16
2016/4/29 10:48,3.1,15,3.1,16,6.5,2
2016/4/29 10:49,3.1,15,3.1,16,7,15
2016/4/29 10:50,3.1,15,3.1,16,6.9,1
2016/4/29 10:51,3,15,3.1,16,6.8,16
2016/4/29 10:52,3.1,16,3.1,16,7,16
2016/4/29 10:53,3.1,16,3.1,15,3.6,15
2016/4/29 10:54,3.1,15,3.1,15,4.4,16
2016/4/29 10:55,3.2,16,3.2,15,5.2,16
2016/4/29 10:56,3.2,16,3.2,15,6.4,1